User: anonymous   Login
Location: NJAA Observatory
(40.6819°N, 74.8979°W)
Time: 14:32:16
(UTC-04:00)
Language:

Cosmos 1939 Rocket - Orbit

View from above orbital plane
View from above orbital plane
View from above satellite
View from above satellite

Ground track
Ground track

The orbit data is extracted from the following two-line orbital elements,

1 19046U 88032B   17289.89045019 -.00000042 +00000-0 +14395-5 0  9998
2 19046 097.5124 333.2031 0037175 280.7103 078.9937 15.02290925590629
Epoch (UTC): 16 October 2017 21:22:14
Eccentricity: 0.0037175
inclination: 97.5124°
perigee height: 534 km
apogee height: 585 km
right ascension of ascending node: 333.2031°
argument of perigee: 280.7103°
revolutions per day: 15.02290925
mean anomaly at epoch: 78.9937°
orbit number at epoch: 59062

The dashed part of the orbit path shows where the satellite is in the earth's shadow,  

DLR